This is the latest recevied weather packets stored in our database for station/object W5GMO. If no packets are shown the sender has not sent any weather packets the latest 10 day(s).
| Time | Temp. | Humidity | Pressure | Rain* | Wind** | Luminosity | Snow |
|---|---|---|---|---|---|---|---|
| 1788541088 | 31.67° C | 1% | 1013.9 hPa | 0 mm | - | 694 W/m² | - |
| 1788540782 | 30.56° C | 1% | 1013.9 hPa | 0 mm | - | 669 W/m² | - |
| 1788540482 | 32.22° C | 1% | 1014.3 hPa | 0 mm | - | 667 W/m² | - |
| 1788540177 | 32.22° C | 1% | 1014.1 hPa | 0 mm | - | 723 W/m² | - |
| 1788539874 | 32.22° C | 1% | 1014.1 hPa | 0 mm | - | 727 W/m² | - |
| 1788539568 | 31.67° C | 1% | 1014.4 hPa | 0 mm | - | 720 W/m² | - |
| 1788539267 | 30.56° C | 1% | 1014.6 hPa | 0 mm | - | 715 W/m² | - |
| 1788538963 | 31.11° C | 1% | 1014.7 hPa | 0 mm | - | 703 W/m² | - |
| 1788538658 | 30.56° C | 1% | 1014.5 hPa | 0 mm | - | 655 W/m² | - |
| 1788538358 | 31.11° C | 1% | 1014.7 hPa | 0 mm | - | 713 W/m² | - |
| 1788538054 | 31.67° C | 1% | 1014.6 hPa | 0 mm | - | 701 W/m² | - |
| 1788537750 | 31.11° C | 1% | 1014.5 hPa | 0 mm | - | 695 W/m² | - |
| 1788537443 | 31.11° C | 1% | 1014.5 hPa | 0 mm | - | 656 W/m² | - |
| 1788537143 | 30.56° C | 1% | 1014.5 hPa | 0 mm | - | 698 W/m² | - |
| 1788536841 | 31.11° C | 1% | 1014.4 hPa | 0 mm | - | 616 W/m² | - |
| 1788536536 | 30.56° C | 1% | 1014.6 hPa | 0 mm | - | 648 W/m² | - |
| 1788536232 | 30° C | 1% | 1014.5 hPa | 0 mm | - | 650 W/m² | - |
| 1788535927 | 30° C | 1% | 1014.5 hPa | 0 mm | - | 653 W/m² | - |
| 1788535623 | 30° C | 1% | 1014.6 hPa | 0 mm | - | 666 W/m² | - |
| 1788535319 | 30° C | 1% | 1014.6 hPa | 0 mm | - | 658 W/m² | - |
| 1788535014 | 30° C | 1% | 1014.6 hPa | 0 mm | - | 648 W/m² | - |
| 1788534712 | 30.56° C | 1% | 1014.7 hPa | 0 mm | - | 637 W/m² | - |
| 1788534408 | 30° C | 1% | 1014.8 hPa | 0 mm | - | 626 W/m² | - |
| 1788534109 | 29.44° C | 1% | 1014.8 hPa | 0 mm | - | 613 W/m² | - |
| 1788533807 | 29.44° C | 1% | 1014.8 hPa | 0 mm | - | 604 W/m² | - |
* Rain latest hour (hover to see other rain measurements)
** Current wind speed in m/s (hover to see current wind gust speed)